Wind_Speed
26 27 29 29 28 28 28 28 28 28 28 30 32 35 39 42 45 48 51 53 54 55 55 54 54 54 53 51 51 52 54 56 59 61 62 63 62 61 59 57 57 57 58
32 35 34 33 32 33 32 33 34 35 36 38 41 44 46 49 51 53 55 57 58 59 61 61 61 62 63 63 63 64 64 62 63 64 65 64 62 61 61 60 61 62 64
38 39 36 34 35 36 36 37 38 40 41 44 48 51 53 54 56 58 59 60 61 64 67 69 71 73 73 73 75 75 76 75 74 75 76 76 74 73 70 68 66 67 69
38 37 35 34 35 37 38 40 42 44 46 48 52 54 56 58 60 61 63 65 68 72 75 78 79 79 79 79 79 79 79 80 80 81 82 83 84 85 85 83 81 80 79
34 35 35 36 36 37 39 41 43 45 47 50 53 56 60 63 66 69 71 75 78 80 81 82 83 83 82 80 79 78 78 79 79 79 81 82 83 85 89 90 88 86 83
35 35 35 35 36 38 39 41 43 46 49 53 58 63 67 70 73 77 79 81 83 83 82 82 82 80 79 78 77 76 76 75 74 74 75 76 77 78 81 83 81 79 74
36 35 34 34 35 37 40 44 48 52 56 61 66 71 74 77 80 82 83 84 83 82 80 78 74 71 70 68 68 67 67 66 65 65 64 65 65 67 69 70 66 62 59
31 32 34 35 37 41 45 50 54 59 64 69 73 76 79 81 82 83 84 83 81 78 73 67 62 60 58 58 59 59 59 59 60 60 59 59 59 60 61 61 59 55 50
31 34 36 39 43 47 52 57 61 65 69 72 76 79 81 83 84 83 80 76 72 67 63 59 58 58 59 60 61 60 59 60 60 60 59 57 56 57 55 53 51 48 44
34 37 41 45 50 54 59 62 65 69 73 77 81 83 83 82 78 73 70 67 64 62 60 58 59 61 61 61 60 58 58 58 57 55 54 52 50 48 45 44 42 40 37
39 43 47 51 54 58 62 66 71 75 78 81 82 80 76 71 68 66 64 62 61 60 59 59 60 60 58 55 52 51 50 48 47 46 44 42 40 38 37 36 35 33 31
44 48 51 55 59 63 67 72 76 78 79 78 75 71 66 62 59 58 58 58 56 55 54 53 51 49 45 42 40 38 37 37 36 34 33 32 32 31 30 30 28 27 26
48 52 56 60 64 68 72 75 77 76 73 70 66 59 53 52 52 53 50 47 46 45 43 40 37 35 33 32 31 31 31 30 29 28 28 29 29 29 28 27 25 23 23
52 56 60 64 68 72 74 74 73 71 67 60 52 48 47 46 44 40 38 37 36 33 32 30 30 29 29 28 27 27 27 26 26 26 26 24 23 22 21 20 21 21 21
56 60 63 67 69 71 71 70 66 60 54 47 44 43 42 38 34 31 30 29 28 27 26 26 26 26 26 25 24 24 25 24 22 20 18 16 17 17 15 14 13 14 15
59 62 65 66 67 67 65 60 52 47 44 42 40 37 34 29 27 25 23 24 24 25 24 23 24 24 23 22 22 21 20 18 14 12 12 13 14 14 12 9 8 7 8
60 62 63 64 63 60 54 46 42 40 40 37 32 27 23 21 20 19 21 23 24 24 22 21 20 20 20 18 17 15 12 10 9 9 10 11 12 11 11 7 4 5 6
59 60 59 57 54 49 44 41 40 36 31 24 18 15 14 15 17 20 22 22 20 17 17 16 16 17 17 17 16 13 11 10 9 10 10 9 10 11 11 7 2 4 7
56 54 51 47 44 42 39 36 29 21 13 10 9 9 12 15 17 19 18 18 19 19 19 18 18 18 18 17 16 13 12 11 11 11 11 11 11 10 9 5 2 2 6
48 45 42 39 38 33 26 18 11 9 9 9 10 11 13 15 17 17 19 20 22 22 22 22 21 20 19 18 16 14 13 12 12 13 13 13 13 11 8 4 1 3 4
40 37 35 31 24 14 9 9 10 11 11 11 12 13 15 17 18 21 23 25 25 25 25 25 24 23 23 21 19 17 15 14 13 13 13 11 11 8 6 4 3 4 6
32 29 24 14 6 8 11 12 12 13 13 14 14 15 18 21 24 26 28 28 28 28 27 27 26 24 24 23 22 21 19 16 14 13 12 11 8 3 5 8 7 6 6
23 16 6 4 10 13 14 15 16 17 17 17 18 20 22 25 26 28 29 30 31 31 31 30 29 27 25 24 22 21 20 19 17 15 12 10 7 3 4 8 9 10 9
10 1 6 12 15 18 20 22 22 21 21 21 22 23 25 27 28 29 30 31 32 32 31 30 29 27 25 24 22 21 19 18 17 16 14 10 7 3 2 6 9 11 11
3 8 12 16 21 25 26 25 24 23 23 24 24 25 27 28 30 31 32 33 33 32 31 28 26 24 23 22 20 18 16 15 15 15 14 12 10 7 5 6 8 8 9
10 15 21 26 27 26 26 25 25 24 24 24 26 28 29 31 32 34 35 35 35 34 31 28 25 22 21 21 20 17 14 12 11 11 12 12 13 12 10 9 8 8 8
Wind_Direction
310 313 311 305 301 298 296 297 300 303 303 300 297 295 294 294 296 298 298 297 296 297 297 298 296 294 293 291 288 285 282 280 279 276 273 271 270 271 273 273 273 273 274
308 309 308 305 301 299 299 300 302 303 301 299 297 295 295 295 296 297 299 299 298 298 300 301 300 299 298 296 294 291 288 286 285 282 279 276 271 268 269 270 272 275 277
300 302 302 300 297 297 297 297 298 299 297 294 293 294 296 296 297 298 298 298 299 299 301 301 300 299 297 295 293 291 289 286 285 284 282 280 276 270 266 265 267 270 272
292 294 293 291 290 290 291 291 291 291 291 290 292 295 297 298 299 299 300 301 302 301 301 300 298 297 295 294 292 291 289 288 286 284 282 281 279 276 272 269 269 270 272
288 286 285 283 282 282 283 285 287 290 293 294 295 296 297 299 299 300 300 300 299 299 299 298 297 296 294 292 290 288 287 286 286 284 283 282 281 280 279 276 273 274 275
282 282 281 279 277 279 281 286 290 293 294 294 295 295 296 296 297 296 296 296 296 298 298 298 297 296 295 292 288 286 285 285 285 285 285 284 283 283 282 280 278 277 275
283 284 286 286 285 286 289 292 293 293 293 293 294 293 293 293 293 294 295 296 298 298 298 298 296 294 291 289 288 288 287 287 287 287 286 285 285 283 281 279 277 274 271
290 291 291 288 286 286 288 290 291 291 291 291 291 290 290 291 293 295 297 298 298 298 297 295 294 292 292 291 290 290 289 288 288 288 287 286 285 283 281 279 277 274 272
297 294 290 286 285 286 288 289 290 290 290 290 291 292 294 295 296 297 298 299 298 297 295 293 291 291 291 290 288 287 286 286 287 286 285 284 284 283 280 278 277 277 275
295 291 288 287 288 289 291 292 293 294 294 295 296 297 298 299 300 300 299 299 298 297 294 290 289 291 292 291 287 286 285 286 287 286 285 284 284 283 280 279 278 279 276
291 289 289 290 292 293 295 297 296 296 296 297 298 299 300 300 299 299 298 297 296 295 292 290 289 290 292 291 289 288 288 289 289 288 287 286 285 284 282 281 280 278 273
289 290 291 292 294 295 296 296 296 296 297 298 299 300 300 299 298 297 297 296 294 293 293 293 293 293 294 294 293 292 292 291 290 287 286 286 285 286 283 280 276 272 268
290 290 291 292 294 295 295 296 296 297 298 299 301 302 301 300 299 298 297 296 296 297 298 299 300 301 301 300 298 295 293 292 290 289 290 290 289 288 284 276 270 265 264
289 290 291 293 295 296 297 298 299 300 301 303 304 306 306 306 305 304 303 303 304 304 305 306 307 306 304 302 299 295 291 291 294 297 298 298 295 292 286 274 265 261 260
290 292 295 296 297 298 299 300 301 302 303 305 307 310 312 312 311 311 311 312 312 312 312 311 309 308 306 303 299 294 291 293 297 299 300 303 304 301 292 277 264 258 251
294 295 297 298 299 301 301 301 302 304 305 307 309 311 313 314 315 317 319 319 319 317 315 313 311 311 312 311 308 304 299 298 299 300 303 310 316 316 310 287 265 252 241
297 299 301 302 302 302 303 305 306 306 307 308 309 312 317 320 324 326 326 325 322 320 319 318 319 322 324 328 332 331 322 318 314 311 313 318 328 342 342 329 272 233 218
303 304 303 303 304 304 306 308 309 310 311 312 317 323 328 331 332 332 332 333 338 341 342 342 341 340 340 340 340 337 333 332 326 317 311 312 326 344 348 342 297 213 205
306 305 304 304 305 306 309 311 315 321 330 344 353 353 347 342 341 343 351 359 1 0 358 354 349 347 348 348 344 336 329 327 324 318 306 300 309 327 341 358 7 206 200
307 306 306 306 307 310 316 328 353 24 38 36 24 7 356 352 352 356 356 354 353 351 348 345 342 340 338 339 340 338 333 334 333 327 314 300 295 298 304 312 53 97 151
307 307 307 307 312 328 9 50 60 57 48 36 21 13 7 2 356 350 346 343 342 340 338 336 333 330 328 326 324 322 320 322 331 339 336 325 309 288 261 227 176 125 125
307 307 308 316 359 65 75 72 65 56 46 38 31 21 9 359 352 347 345 344 343 342 340 338 336 333 328 322 316 310 305 302 307 321 333 343 343 301 218 205 197 179 163
305 307 321 77 97 94 86 78 71 64 57 47 32 17 4 356 352 350 348 346 344 343 342 340 338 336 332 327 321 315 307 298 293 294 304 322 339 355 187 190 192 193 190
298 330 107 111 106 99 91 85 78 68 54 39 24 11 2 356 352 351 351 349 348 347 345 344 343 342 341 339 335 326 315 305 294 285 279 282 294 287 179 172 174 178 186
137 114 114 111 105 99 92 82 70 56 42 29 18 9 3 1 0 360 358 355 353 351 349 348 348 349 350 349 347 341 330 313 297 283 270 258 251 244 218 190 180 182 190
119 115 113 108 102 94 84 71 59 47 36 26 20 17 14 10 7 4 1 357 354 352 352 351 352 354 357 356 352 349 347 339 318 293 272 253 236 229 220 206 194 187 181
Height
5836 5835 5833 5832 5830 5828 5825 5822 5821 5821 5820 5818 5816 5813 5809 5807 5804 5800 5796 5792 5788 5784 5780 5777 5774 5771 5767 5764 5760 5758 5756 5754 5750 5747 5746 5747 5745 5742 5739 5738 5738 5737 5736
5830 5829 5827 5826 5824 5821 5819 5817 5815 5814 5812 5810 5807 5804 5800 5797 5793 5789 5784 5779 5774 5770 5766 5763 5759 5756 5752 5748 5744 5741 5739 5738 5734 5729 5726 5727 5730 5728 5725 5724 5722 5721 5719
5825 5823 5821 5820 5818 5815 5813 5811 5808 5806 5803 5799 5796 5793 5790 5785 5781 5776 5771 5767 5762 5757 5752 5747 5743 5740 5736 5732 5727 5722 5719 5718 5717 5710 5705 5704 5706 5707 5709 5707 5706 5704 5702
5819 5817 5816 5814 5812 5810 5807 5804 5801 5797 5794 5790 5786 5782 5777 5772 5767 5762 5757 5752 5746 5740 5735 5730 5725 5721 5717 5712 5707 5702 5697 5694 5693 5690 5684 5679 5679 5678 5679 5684 5685 5683 5681
5812 5811 5809 5808 5805 5803 5799 5796 5793 5789 5785 5780 5775 5770 5764 5759 5753 5748 5743 5737 5731 5724 5718 5712 5706 5701 5696 5691 5686 5682 5677 5672 5669 5667 5662 5657 5654 5652 5647 5652 5659 5657 5656
5805 5803 5801 5799 5797 5794 5791 5788 5784 5780 5775 5770 5764 5758 5752 5747 5741 5735 5729 5722 5715 5708 5700 5693 5687 5680 5674 5669 5664 5660 5656 5651 5647 5644 5640 5636 5632 5630 5624 5623 5631 5633 5634
5797 5794 5792 5790 5788 5785 5782 5778 5774 5769 5764 5758 5752 5746 5740 5733 5726 5719 5711 5704 5697 5690 5683 5676 5669 5663 5656 5650 5644 5640 5636 5631 5628 5624 5620 5616 5612 5608 5604 5601 5605 5609 5613
5788 5786 5784 5782 5779 5776 5772 5768 5764 5758 5752 5746 5739 5731 5724 5717 5709 5700 5692 5684 5678 5671 5665 5659 5652 5646 5639 5633 5628 5623 5619 5614 5610 5606 5602 5598 5595 5591 5587 5584 5584 5587 5592
5780 5778 5776 5773 5769 5765 5761 5757 5752 5746 5739 5730 5722 5714 5706 5698 5690 5681 5673 5665 5658 5652 5647 5641 5636 5630 5624 5618 5612 5607 5603 5598 5594 5590 5586 5582 5579 5575 5572 5570 5569 5570 5572
5771 5769 5766 5763 5759 5755 5750 5744 5737 5729 5720 5712 5704 5695 5686 5678 5669 5661 5654 5648 5642 5636 5630 5625 5619 5614 5608 5601 5595 5591 5587 5582 5578 5574 5570 5568 5565 5562 5559 5558 5556 5556 5556
5763 5760 5756 5752 5747 5741 5734 5727 5719 5711 5702 5694 5686 5677 5668 5660 5653 5646 5639 5633 5627 5621 5615 5609 5603 5597 5591 5585 5580 5576 5572 5568 5564 5561 5558 5555 5552 5550 5548 5547 5546 5546 5547
5753 5749 5744 5739 5733 5726 5719 5711 5702 5694 5687 5678 5670 5661 5654 5646 5639 5632 5626 5619 5612 5606 5599 5593 5587 5582 5576 5571 5567 5564 5561 5558 5555 5551 5548 5546 5544 5541 5539 5538 5537 5538 5539
5742 5737 5732 5726 5720 5712 5704 5696 5687 5679 5671 5662 5654 5647 5640 5633 5626 5620 5612 5605 5599 5593 5587 5581 5576 5571 5566 5562 5559 5556 5553 5550 5547 5544 5542 5539 5536 5533 5531 5530 5530 5531 5532
5731 5725 5720 5714 5706 5698 5689 5680 5671 5662 5655 5648 5641 5634 5628 5621 5614 5607 5601 5595 5589 5584 5578 5573 5568 5564 5559 5555 5552 5549 5546 5543 5541 5538 5535 5531 5528 5525 5523 5523 5523 5524 5525
5718 5712 5706 5699 5691 5682 5673 5664 5656 5648 5641 5635 5629 5623 5617 5611 5604 5599 5593 5588 5582 5577 5572 5567 5563 5558 5554 5550 5546 5542 5539 5537 5534 5532 5529 5526 5523 5521 5518 5518 5518 5518 5520
5706 5699 5691 5683 5674 5666 5657 5649 5642 5636 5630 5625 5620 5614 5609 5604 5598 5593 5588 5583 5578 5572 5568 5563 5558 5554 5549 5544 5540 5536 5533 5532 5530 5528 5526 5524 5521 5518 5515 5514 5514 5515 5517
5693 5684 5675 5666 5657 5649 5642 5635 5630 5625 5620 5615 5611 5607 5603 5599 5595 5590 5585 5579 5574 5569 5563 5559 5554 5549 5544 5540 5536 5532 5530 5529 5528 5526 5524 5522 5519 5517 5514 5513 5513 5514 5516
5678 5669 5660 5652 5644 5637 5631 5625 5619 5614 5610 5607 5605 5603 5600 5596 5592 5587 5582 5576 5571 5565 5560 5556 5551 5546 5542 5538 5535 5532 5530 5528 5527 5525 5522 5520 5519 5516 5515 5513 5513 5513 5515
5664 5656 5648 5642 5635 5628 5622 5616 5611 5608 5605 5604 5603 5601 5598 5595 5591 5586 5581 5576 5570 5565 5560 5555 5550 5546 5541 5537 5534 5531 5529 5527 5525 5523 5521 5519 5518 5516 5515 5514 5513 5514 5515
5651 5645 5639 5633 5627 5622 5616 5612 5609 5607 5606 5605 5604 5601 5598 5595 5591 5586 5581 5576 5570 5565 5560 5555 5550 5545 5541 5536 5533 5530 5527 5525 5523 5521 5519 5517 5515 5515 5515 5515 5515 5515 5515
5643 5638 5632 5628 5623 5618 5615 5613 5611 5610 5609 5607 5605 5603 5600 5596 5591 5586 5581 5575 5569 5564 5558 5553 5547 5542 5538 5534 5530 5527 5525 5523 5521 5519 5517 5514 5513 5512 5514 5515 5516 5517 5518
5638 5633 5628 5624 5621 5618 5617 5615 5614 5613 5612 5610 5608 5605 5601 5597 5591 5585 5579 5573 5566 5560 5554 5549 5543 5538 5533 5529 5526 5523 5521 5519 5518 5517 5516 5514 5512 5511 5512 5515 5516 5518 5520
5634 5630 5627 5624 5622 5620 5619 5618 5617 5616 5615 5613 5611 5607 5603 5597 5591 5584 5577 5570 5563 5556 5550 5544 5538 5533 5528 5524 5520 5517 5515 5514 5513 5513 5513 5513 5512 5512 5512 5514 5516 5518 5520
5632 5629 5627 5626 5625 5624 5623 5622 5622 5621 5620 5617 5614 5609 5604 5597 5591 5584 5576 5568 5560 5553 5546 5539 5533 5528 5523 5519 5515 5512 5510 5508 5507 5508 5509 5510 5511 5512 5512 5514 5516 5518 5520
5632 5631 5630 5630 5629 5629 5628 5628 5627 5626 5624 5621 5617 5612 5605 5598 5590 5582 5574 5566 5558 5550 5543 5536 5530 5525 5521 5516 5512 5508 5505 5502 5501 5502 5503 5505 5508 5510 5512 5513 5515 5517 5519
5635 5634 5634 5634 5634 5634 5634 5633 5632 5631 5628 5625 5620 5613 5606 5599 5591 5583 5574 5565 5556 5548 5540 5533 5528 5523 5519 5514 5510 5506 5503 5500 5498 5497 5497 5499 5502 5505 5509 5512 5514 5516 5518